Home > Weather > Scarborough > Past weeks

Flag for Trinidad and Tobago Weather for the Past 2 Weeks in Scarborough, Trinidad and Tobago

Now
77 °F

Passing clouds.


Feels Like: 79 °F
Forecast: 77 / 84 °F
Wind: 12 mph from East

Location: Crown Pt./ Scarborou

Current Time: Feb 14, 2016 at 12:38:04 AM

Latest Report: Feb 14, 2016 at 12:00 AM


Visibility: N/A

Pressure: 29.95 "Hg

Humidity: 74%

Dew point: 68 °F

Location of ScarboroughLocation

Historic Weather in Scarborough — Graph

°F

Scarborough Temperature Yesterday

Maximum temperature yesterday: 84 °F (at 11:00 AM)
Minimum temperature yesterday: 75 °F (at 4:00 AM)
Average temperature yesterday: 80 °F

High & Low Weather Summary for the Past Weeks

 TemperatureHumidityPressure
High88 °F (Feb 9, 12:00 PM)94% (Feb 5, 8:00 AM)30.07 "Hg (Feb 5, 8:00 AM)
Low72 °F (Feb 4, 5:00 AM)52% (Feb 9, 12:00 PM)29.86 "Hg (Feb 3, 4:00 PM)
Average80 °F73%29.97 "Hg
* Reported Jan 29 11:00 PM — Feb 13 11:00 PM, Scarborough, Weather by CustomWeather, © 2016

Note: Actual official high and low records may vary slightly from our data, if they occured in-between our weather recording intervals... More about our weather records

Advertising

Scarborough Weather History for the Previous 24 Hours

 ConditionsComfort  
Time TempWeatherWind HumidityBarometerVisibility
11:00 PM
Sat, Feb 13
79 °FPassing clouds.12 mph70%29.98 "HgN/A
10:00 PM79 °FPassing clouds.12 mph70%29.98 "HgN/A
9:00 PM79 °FPassing clouds.12 mph74%29.95 "HgN/A
7:00 PM79 °FPassing clouds.9 mph70%29.95 "HgN/A
6:00 PM81 °FPassing clouds.15 mph70%29.92 "HgN/A
5:00 PM82 °FPassing clouds.17 mph66%29.92 "HgN/A
3:00 PM84 °FPassing clouds.20 mph62%29.92 "HgN/A
2:00 PM84 °FPassing clouds.21 mph62%29.95 "HgN/A
12:00 PM84 °FPassing clouds.23 mph62%30.01 "HgN/A
11:00 AM84 °FPassing clouds.24 mph62%30.04 "HgN/A
10:00 AM82 °FPassing clouds.20 mph66%30.04 "HgN/A
9:00 AM82 °FPassing clouds.22 mph66%30.01 "HgN/A
8:00 AM79 °FPassing clouds.5 mph74%29.98 "HgN/A
7:00 AM75 °FPassing clouds.6 mph78%29.98 "HgN/A
6:00 AM75 °FPassing clouds.3 mph78%29.95 "HgN/A
5:00 AM75 °FPassing clouds.3 mph78%29.95 "HgN/A
4:00 AM75 °FPassing clouds.3 mph78%29.92 "HgN/A
2:00 AM77 °FPassing clouds.3 mph74%29.95 "HgN/A
1:00 AM77 °FPassing clouds.7 mph74%29.95 "HgN/A
12:00 AM77 °FPassing clouds.7 mph74%29.98 "HgN/A
Weather by CustomWeather, © 2016

See weather overviewHow to use our weather pages